CZ-6A DEB, 60754

Orbit data source: Space-Track

CZ-6A DEB, 60754 is space debris in LEO originally from a launch on Tue, 06 Aug 2024 UTC launched from the Taiyaun Space Center, China (TSC). Debris objects in space refer to the collection of defunct objects orbiting the Earth. Examples of debris include non-operational satellites, rocket bodies, and fragments generated from explosions, collisions, or faulty payload assembly.

Loading next visibility...
Identifier
60754, 2024-140ED
Orbit
LEO
Country
Flag of CNCN / PRC
Related business
Manufacturer
SAST
Mission
Spacecraft
Bus & Motor
Unknown
Mass
Unknown
Launch date (UTC)
2024-08-06 (2 years ago)
Launch vehicle
Unknown
Launch site
Taiyaun Space Center, China (TSC)
Object type
Payload
Rocket body
Debris
Shape & HBR
Unknown shape, 1.1 m
Radar Cross Section
Medium (>0.1 m² and <1 m²)

Expand to show TLE details & history
Last TLE update: 15 hours ago

TLE from 15 hours ago
0 CZ-6A DEB
1 60754U 24140ED  26171.24431795  .00001588  00000-0  72355-3 0  9992
2 60754  88.9678 271.8351 0056445 184.6193 175.4485 14.20358043 94819
Epoch: 2026-06-20T05:51Z
TLE epoch observation values (Epoch: 2026-06-20T05:51:49.070Z)
Latitude
0.00002°
Longitude
-84.58108°
Altitude
867.731 km
Speed
7.398 km/s
True Right ascension
18h 07m 20s
True Declination
0° 00' 00"
Sunlit
Object was in full shadow at epoch
Visualization orbit readout
Latitude
Unknown
Longitude
Unknown
Altitude
Unknown
Speed
Unknown
Apparent Right ascension
Unknown
Apparent Declination
Unknown
Sunlit
N/A
Visualization observer readout
Local Sidereal Time
07:19:05
Azimuth
Unknown
Elevation
Unknown
Doppler factor
Unknown
Orbital elements
Apogee altitude
861.729 km
Perigee altitude
780.457 km
Semi-major axis
7,199.23 km
Eccentricity
0.00564
Inclination
88.9678°
RAAN
271.8351°
Arg. of periapsis
184.6193°
True anomaly
175.49947°
Mean anomaly
175.4485°
Eccentric anomaly
175.47402°
Mean motion
3.55315 °/min
Orbital period
101.32 mins
BSTAR
0.00072355
Loading maneuver chart data...
Computing Atmospheric mass density...
Loading historical data...
Loading historical data...
Loading historical data...
Loading historical data...
Loading historical data...
Loading historical data...
Loading historical data...

Documentation

Showing up to 5 results
|